Flag Weather past 2 weeks in Aarhus, Denmark

Now
41 °F

Overcast.


Feels Like: 33 °F
Forecast: 37 / 40 °F
Wind: 15 mph from Southeast

Location: Tirstrup

Current Time: Nov 28, 2014 at 11:21:38 PM

Latest Report: Nov 28, 2014 at 10:50 PM


Visibility: N/A

Pressure: 30.30 "Hg

Humidity: 57%

Dew point: 27 °F

Location of AarhusLocation

Historic Weather in Aarhus — Graph

°F

Aarhus temperature yesterday

Maximum temperature yesterday: 46 °F (at 12:50 PM)
Minimum temperature yesterday: 41 °F (at 7:50 AM)
Average temperature yesterday: 43 °F

Past Weeks' High & Low Weather Summary

 TemperatureHumidityPressure
High52 °F (Nov 14, 11:50 PM)94% (Nov 14, 3:20 AM)30.42 "Hg (Nov 14, 3:20 AM)
Low34 °F (Nov 26, 6:50 AM)50% (Nov 27, 12:50 PM)29.77 "Hg (Nov 16, 2:50 PM)
Average45 °F80%30.13 "Hg
* Reported Nov 13 10:50 PM — Nov 28 10:20 PM, Aarhus, Weather by CustomWeather, © 2014

Note: Actual official high and low records may vary slightly from our data, if they occured in-between our weather recording intervals... More about our weather records

Advertising

Aarhus weather history for previous 24 hours

 ConditionsComfort  
Time TempWeatherWind HumidityBarometerVisibility
10:20 PM
Nov 28
41 °FOvercast.15 mph57%30.30 "HgN/A
9:50 PM41 °FOvercast.15 mph57%30.30 "HgN/A
9:20 PM39 °FOvercast.17 mph61%30.30 "HgN/A
8:50 PM39 °FOvercast.15 mph61%30.30 "HgN/A
8:20 PM39 °FSprinkles. Overcast.15 mph61%30.30 "HgN/A
7:50 PM39 °FOvercast.14 mph65%30.27 "HgN/A
7:20 PM37 °FLight rain. Overcast.13 mph75%30.27 "HgN/A
6:50 PM39 °FDrizzle. Overcast.14 mph65%30.27 "HgN/A
6:20 PM39 °FOvercast.16 mph61%30.27 "HgN/A
5:50 PM41 °FOvercast.16 mph57%30.27 "HgN/A
5:20 PM39 °FOvercast.13 mph61%30.27 "HgN/A
4:50 PM39 °FSprinkles. Overcast.15 mph75%30.27 "HgN/A
4:20 PM41 °FPassing clouds.15 mph66%30.24 "HgN/A
3:50 PM41 °FLight rain. Passing clouds.16 mph66%30.24 "HgN/A
3:20 PM41 °FPartly sunny.17 mph66%30.24 "HgN/A
2:50 PM41 °FPassing clouds.17 mph66%30.24 "HgN/A
2:20 PM41 °FPartly sunny.18 mph66%30.24 "HgN/A
1:50 PM43 °FPartly sunny.16 mph61%30.24 "HgN/A
1:20 PM43 °FScattered clouds.17 mph61%30.24 "HgN/A
12:50 PM43 °FPassing clouds.16 mph66%30.24 "HgN/A
12:20 PM43 °FPassing clouds.17 mph66%30.24 "HgN/A
11:50 AM43 °FPassing clouds.17 mph61%30.24 "HgN/A
11:20 AM43 °FPartly sunny.15 mph61%30.24 "HgN/A
10:50 AM43 °FPartly sunny.17 mph66%30.24 "HgN/A
10:20 AM43 °FScattered clouds.15 mph66%30.24 "HgN/A
9:50 AM43 °FPartly sunny.15 mph61%30.24 "HgN/A
9:20 AM43 °FPartly sunny.18 mph66%30.24 "HgN/A
8:50 AM43 °FOvercast.16 mph71%30.21 "HgN/A
8:20 AM43 °FOvercast.13 mph71%30.21 "HgN/A
7:50 AM43 °FPassing clouds.16 mph71%30.21 "HgN/A
7:20 AM43 °FPassing clouds.13 mph71%30.21 "HgN/A
6:50 AM43 °FPassing clouds.15 mph76%30.18 "HgN/A
6:20 AM43 °FPassing clouds.14 mph71%30.18 "HgN/A
5:50 AM43 °FPassing clouds.12 mph76%30.18 "HgN/A
5:20 AM43 °FPassing clouds.12 mph71%30.18 "HgN/A
4:20 AM43 °FPassing clouds.15 mph76%30.15 "HgN/A
3:50 AM43 °FPassing clouds.12 mph76%30.15 "HgN/A
3:20 AM43 °FPassing clouds.10 mph71%30.15 "HgN/A
2:50 AM43 °FPassing clouds.13 mph76%30.15 "HgN/A
2:20 AM43 °FPassing clouds.12 mph71%30.15 "HgN/A
1:50 AM43 °FPassing clouds.13 mph71%30.15 "HgN/A
1:20 AM43 °FPassing clouds.13 mph76%30.15 "HgN/A
12:50 AM43 °FPassing clouds.13 mph76%30.15 "HgN/A
12:20 AM43 °FPassing clouds.12 mph71%30.15 "HgN/A
11:50 PM
Nov 27
43 °FPassing clouds.12 mph76%30.12 "HgN/A
11:20 PM43 °FQuite cool.13 mph71%30.12 "HgN/A
Weather by CustomWeather, © 2014

See weather overviewHow to use our weather pages